COSMOS 1275 DEB

Satellite information

Favourite Embed

Satellite Type and Status

DEBRISIN ORBIT

Key statistics

Satellite COSMOS 1275 DEB at a glance.

Uptime

16263

Days in orbit

Revolutions

≈ 13.8

Per day

Orbit

LEO

Low Earth Orbit

Inclination

83.0

Latest

Satellite identification and parameters

Extended collection of information and parameters for COSMOS 1275 DEB.

Object identification

Identified? True

Debris? True

Object name: COSMOS 1275 DEB

International designator: 1981-053C

Object number (NORAD): 12648

Object ID (CCSDS): 12648

Country: COMMONWEALTH OF INDEPENDENT STATES (CIS)

Current information (Y/N): Y

RCS size: MEDIUM

Orbital parameters

Period: 104.223 minutes

Inclination: 82.9694 deg

SMA: 7336.155 km

Apoapsis: 968.139 km

Periapsis: 947.901 km

RAAN: 346.5287 deg

Eccentricy: 0.00137933

Argument of periapsis: 346.0636 deg

Mean anomaly: 24.5946 deg

Mean motion: 13.81656294 rev/day

Mean motion (dot): 0.00000436 rev/day2

B* drag term: 0.00039405013 1/REarth

Two-line elements (TLE)

Creation date: Dec. 12, 2025, 10:14 a.m.

Reference frame: TEME

Reference center: EARTH

Epoch: Dec. 12, 2025, 6:46 a.m. UTC

TLE line 0: 0 COSMOS 1275 DEB

TLE line 1: 1 12648U 81053C 25346.28233605 .00000436 00000-0 39405-3 0 9994

TLE line 2: 2 12648 82.9694 346.5287 0013793 346.0636 24.5946 13.81656294231862

Live tracking on map

Real-time ground track for satellite COSMOS 1275 DEB.

In-orbit conjunctions

A list of the most updated potential collisions computed for object COSMOS 1275 DEB.

Target Orbit TCA Probability of collision Miss distance Type
THOR ABLESTAR DEB LEO 2025-03-16 17:53:40 0.000126856 110.0 (m) DEBRIS
FENGYUN 1C DEB SSO 2024-10-10 08:44:36 0.000103916 152.0 (m) DEBRIS
COSMOS 1275 DEB LEO 2024-07-10 03:25:28 0.0002937859 255.0 (m) DEBRIS

Associated space launch

Navigation satellite providing location information for the Tsiklon-B navigation system

COSMOS 1275 DEB was lifted into orbit during the mission ‘Kosmos-3M | Parus 27’, on board a Kosmos-3M space rocket.

The launch took place on June 4, 1981, 3:41 p.m. from 132/2.

For more information about the launch, click the button.

Launch to space Kosmos-3M | Parus 27
Kosmos-3M | Parus 27

Agency: N/A

Status: Launch Successful

Launch date: June 4, 1981, 3:41 p.m. UTC

Rocket: Kosmos-3M

Launch pad: 132/2

Location: Plesetsk Cosmodrome, Russian Federation

...

Latest news about this satellite

There are no fresh news available about this satellite. Check back as we update our databases every day.


Newsletter sign-up

Weekly statistics, charts and insights to help you stay on top of the space industry.